Weather in Shevchenkovo

Ukraine / Odesa District     47°08′59″N   30°45′19″E
temp.,
°C
wind,
m/s
gust,
m/s
humid.,
%
clouds,
%
prec.,
mm/h
press.,
hPa
HPBL,
m
22 april, thu
thu2200:00+9ssw226777 0.0 101816
03:00+10ssw3676100 0.0 1018150
06:00+10s3577100 0.0 1019106
09:00+12s56675 0.0 1020408
12:00+17s554258 0.0 10192152
15:00+17s674695 0.0 10191957
18:00+13sse687068 1.7 1018365
21:00+10sse5118485 1.8 1019230
23 april, fri
fri2300:00+9s4128399 0.0 1018295
03:00+9s5118557 0.0 1017255
06:00+8s41092100 0.2 1017233
09:00+12sw5678100 1.1 1017477
12:00+15wsw3462100 0.3 10161064
15:00+13wsw5668100 2.0 1016979
18:00+8n6989100 7.9 1017621
21:00+7n468787 8.9 1019421
24 april, sat
sat2400:00+5wnw34935 0.0 1020107
03:00+4w48910 0.0 1019188
06:00+3wnw36820 0.0 1020107
09:00+8wnw610627 0.0 1021953
12:00+8wnw8115898 0.0 10221443
15:00+11nw8113410 0.0 10222366
18:00+10nw710405 0.0 10222443
21:00+6nw22520 0.0 102321
25 april, sun
sun2500:00+5w22555 0.0 102410
03:00+4wsw22595 0.0 102413
06:00+3sw22595 0.0 102312
09:00+9ssw34465 0.0 1022411
12:00+13ssw563996 0.0 10211831
15:00+13sw6746100 0.0 10191756
18:00+11ssw7868100 0.3 10191075
21:00+9ssw51064100 0.4 1020449
26 april, mon
mon2600:00+8nw5880100 0.2 1020697
03:00+6nnw3780100 0.3 1020492
06:00+3nw48810 0.0 1020201
09:00+7nw56530 0.0 1021805
12:00+10wnw574010 0.0 10211982
15:00+13wnw7934100 0.0 10192620
18:00+12nw694238 0.0 10192204
21:00+8nnw3454100 0.0 102069